Location: *
(51.4660°N, 0.3360°W)
Time: 23:36:14
(UTC+00:00)

Cosmos 1741 Rocket - Pass Details

Date: 19 September 2019
Orbit: 761 x 783 km, 74.0° (Epoch: 20 October)

Event Time Altitude Azimuth Distance (km) Brightness Sun altitude
Rises 21:08:20 0° 332° (NNW) 3,284 8.4 -26.5°
Reaches altitude 10° 21:10:46 10° 329° (NNW) 2,352 7.4 -26.8°
Maximum altitude 21:16:01 59° 251° (WSW) 901 4.3 -27.4°
Enters shadow 21:16:23 58° 232° (SW) 913 4.3 -27.5°
